Language: 


Des rapports , des résumés tant et plus, au choix de chacun....


Données statistiques de la station
Quotidien Rapport Juin 19, 2017 Unités:  Métrique    Anglais   les deux
« Précédent Jour
Suivant Jour »
Quotidien Hebdomadaire Mensuel Annuel Actuel
  Haut: Bas: Moyen:
Température: 35.4 °C 16.6 °C 26.2 °C
Pt de rosée: 20.0 °C 12.0 °C 15.5 °C
Humidité: 93 % 25 % 57 %
Vitesse du vent: 14.0 km/h 0.0 km/h 3.3 km/h
Rafales: 17.2 km/h - -
Vent:- - South
Pression: 1021.9 hPa 1016.1 hPa -
Précipitation: 0.0 mm    
Historical Graphs
 
 
Données statistiques pour Juin 19, 2017
Heure Température Point de rosée Pression Vent Vitesse du vent Refales Humidité Pluie (taux horaire)
00:03 19.9 °C 16.0 °C 1020.9 hPa Calm   5.8 km/h 77 % 0.0 mm
00:08 19.8 °C 16.0 °C 1020.9 hPa Calm   4.3 km/h 77 % 0.0 mm
00:13 19.7 °C 16.0 °C 1020.9 hPa Calm   5.0 km/h 78 % 0.0 mm
00:18 19.6 °C 16.0 °C 1020.9 hPa North 4.0 km/h 5.0 km/h 79 % 0.0 mm
00:21 19.6 °C 16.0 °C 1020.9 hPa Calm   6.4 km/h 80 % 0.0 mm
00:27 19.5 °C 16.0 °C 1020.9 hPa NE 5.0 km/h 7.9 km/h 81 % 0.0 mm
00:32 19.4 °C 16.0 °C 1020.9 hPa NNW 4.7 km/h 7.9 km/h 81 % 0.0 mm
00:37 19.3 °C 16.0 °C 1020.9 hPa NNE 5.8 km/h 6.4 km/h 81 % 0.0 mm
00:42 19.3 °C 16.0 °C 1020.9 hPa Calm   6.9 km/h 81 % 0.0 mm
00:47 19.2 °C 16.0 °C 1020.9 hPa Calm   6.9 km/h 82 % 0.0 mm
00:52 19.2 °C 16.0 °C 1020.9 hPa NNE 4.7 km/h 6.1 km/h 81 % 0.0 mm
00:57 19.1 °C 16.0 °C 1020.9 hPa NNE 2.1 km/h 6.4 km/h 82 % 0.0 mm
01:02 19.1 °C 16.0 °C 1020.9 hPa Calm   7.6 km/h 82 % 0.0 mm
01:07 19.1 °C 16.0 °C 1020.9 hPa NNE 5.8 km/h 7.6 km/h 83 % 0.0 mm
01:12 19.1 °C 16.0 °C 1020.9 hPa NNE 6.9 km/h 6.9 km/h 83 % 0.0 mm
01:17 19.1 °C 16.0 °C 1020.9 hPa NNE 2.1 km/h 6.9 km/h 83 % 0.0 mm
01:22 19.1 °C 16.0 °C 1020.9 hPa North 5.5 km/h 7.2 km/h 83 % 0.0 mm
01:27 19.0 °C 16.0 °C 1020.9 hPa North 6.9 km/h 6.9 km/h 84 % 0.0 mm
01:32 19.0 °C 16.0 °C 1020.9 hPa Calm   6.9 km/h 84 % 0.0 mm
01:37 18.9 °C 17.0 °C 1020.9 hPa NNE 4.7 km/h 6.9 km/h 85 % 0.0 mm
01:42 18.9 °C 16.0 °C 1020.9 hPa Calm   7.6 km/h 84 % 0.0 mm
01:47 18.8 °C 16.0 °C 1020.9 hPa NE 6.9 km/h 7.6 km/h 85 % 0.0 mm
01:52 18.7 °C 16.0 °C 1020.9 hPa NE 4.3 km/h 6.9 km/h 85 % 0.0 mm
01:57 18.7 °C 16.0 °C 1020.9 hPa North 4.3 km/h 7.6 km/h 85 % 0.0 mm
02:02 18.6 °C 16.0 °C 1021.9 hPa North 5.0 km/h 7.6 km/h 86 % 0.0 mm
02:03 18.6 °C 16.0 °C 1021.9 hPa NE 5.5 km/h 6.9 km/h 86 % 0.0 mm
02:08 18.6 °C 16.0 °C 1021.9 hPa NNE 6.4 km/h 6.9 km/h 85 % 0.0 mm
02:13 18.5 °C 16.0 °C 1021.9 hPa NNE 1.8 km/h 6.9 km/h 86 % 0.0 mm
02:18 18.5 °C 16.0 °C 1020.9 hPa Calm   6.9 km/h 86 % 0.0 mm
02:23 18.4 °C 16.0 °C 1020.9 hPa Calm   5.0 km/h 86 % 0.0 mm
02:28 18.3 °C 16.0 °C 1020.9 hPa Calm   4.7 km/h 86 % 0.0 mm
02:33 18.2 °C 16.0 °C 1020.9 hPa Calm   4.7 km/h 86 % 0.0 mm
02:38 18.1 °C 16.0 °C 1020.9 hPa Calm   4.7 km/h 87 % 0.0 mm
02:43 18.1 °C 16.0 °C 1020.9 hPa Calm   6.9 km/h 87 % 0.0 mm
02:48 18.1 °C 16.0 °C 1020.9 hPa North 5.8 km/h 6.9 km/h 87 % 0.0 mm
02:53 18.1 °C 16.0 °C 1020.9 hPa North 5.8 km/h 5.8 km/h 88 % 0.0 mm
02:59 18.0 °C 16.0 °C 1020.9 hPa Calm   5.8 km/h 88 % 0.0 mm
03:04 18.0 °C 16.0 °C 1020.9 hPa NNE 1.4 km/h 5.8 km/h 87 % 0.0 mm
03:09 17.9 °C 16.0 °C 1020.9 hPa Calm   5.8 km/h 87 % 0.0 mm
03:14 17.8 °C 16.0 °C 1020.9 hPa Calm   4.7 km/h 88 % 0.0 mm
03:19 17.8 °C 16.0 °C 1020.9 hPa NNE 5.8 km/h 6.1 km/h 88 % 0.0 mm
03:24 17.7 °C 16.0 °C 1020.9 hPa North 4.7 km/h 6.1 km/h 88 % 0.0 mm
03:29 17.7 °C 16.0 °C 1020.9 hPa NNE 4.3 km/h 6.4 km/h 89 % 0.0 mm
03:34 17.7 °C 16.0 °C 1019.9 hPa North 4.3 km/h 6.4 km/h 89 % 0.0 mm
03:39 17.6 °C 16.0 °C 1019.9 hPa Calm   5.5 km/h 89 % 0.0 mm
03:44 17.5 °C 16.0 °C 1019.9 hPa NE 2.6 km/h 4.7 km/h 89 % 0.0 mm
03:49 17.5 °C 16.0 °C 1019.9 hPa Calm   5.0 km/h 90 % 0.0 mm
03:54 17.5 °C 16.0 °C 1019.9 hPa North 4.0 km/h 7.6 km/h 90 % 0.0 mm
03:59 17.5 °C 16.0 °C 1019.9 hPa ENE 4.7 km/h 7.6 km/h 90 % 0.0 mm
04:04 17.5 °C 16.0 °C 1019.9 hPa Calm   5.8 km/h 89 % 0.0 mm
04:09 17.3 °C 16.0 °C 1019.9 hPa Calm   5.8 km/h 89 % 0.0 mm
04:14 17.3 °C 16.0 °C 1019.9 hPa NNE 5.8 km/h 5.8 km/h 90 % 0.0 mm
04:19 17.3 °C 16.0 °C 1019.9 hPa NE 3.5 km/h 5.8 km/h 90 % 0.0 mm
04:24 17.3 °C 16.0 °C 1019.9 hPa Calm   5.8 km/h 90 % 0.0 mm
04:29 17.2 °C 16.0 °C 1019.9 hPa NE 1.4 km/h 3.5 km/h 90 % 0.0 mm
04:34 17.1 °C 15.0 °C 1018.8 hPa Calm   4.0 km/h 90 % 0.0 mm
04:39 17.0 °C 15.0 °C 1018.8 hPa Calm   4.0 km/h 90 % 0.0 mm
04:44 17.0 °C 15.0 °C 1018.8 hPa Calm     90 % 0.0 mm
04:49 17.0 °C 15.0 °C 1019.9 hPa Calm   5.5 km/h 90 % 0.0 mm
04:54 17.0 °C 16.0 °C 1019.9 hPa Calm   5.5 km/h 91 % 0.0 mm
04:59 17.0 °C 16.0 °C 1019.9 hPa Calm   4.0 km/h 91 % 0.0 mm
05:04 16.9 °C 16.0 °C 1018.8 hPa Calm   4.0 km/h 91 % 0.0 mm
05:09 16.9 °C 16.0 °C 1018.8 hPa Calm   4.0 km/h 91 % 0.0 mm
05:15 16.8 °C 15.0 °C 1018.8 hPa Calm   5.0 km/h 91 % 0.0 mm
05:20 16.8 °C 15.0 °C 1018.8 hPa Calm   5.0 km/h 91 % 0.0 mm
05:25 16.7 °C 15.0 °C 1018.8 hPa Calm   4.0 km/h 91 % 0.0 mm
05:30 16.6 °C 15.0 °C 1018.8 hPa Calm   4.0 km/h 91 % 0.0 mm
05:35 16.6 °C 15.0 °C 1018.8 hPa Calm   4.3 km/h 92 % 0.0 mm
05:40 16.6 °C 15.0 °C 1018.8 hPa Calm   4.3 km/h 92 % 0.0 mm
05:45 16.6 °C 15.0 °C 1018.8 hPa NNE 6.1 km/h 6.1 km/h 92 % 0.0 mm
05:50 16.6 °C 15.0 °C 1018.8 hPa Calm   6.1 km/h 92 % 0.0 mm
05:55 16.7 °C 15.0 °C 1018.8 hPa Calm   6.4 km/h 92 % 0.0 mm
06:00 16.7 °C 15.0 °C 1018.8 hPa North 4.7 km/h 6.4 km/h 92 % 0.0 mm
06:05 16.8 °C 16.0 °C 1019.9 hPa Calm   6.4 km/h 93 % 0.0 mm
06:08 16.8 °C 15.0 °C 1019.9 hPa Calm   6.4 km/h 92 % 0.0 mm
06:13 16.9 °C 16.0 °C 1019.9 hPa Calm   1.4 km/h 92 % 0.0 mm
06:18 17.0 °C 16.0 °C 1018.8 hPa Calm   5.0 km/h 92 % 0.0 mm
06:23 17.2 °C 16.0 °C 1018.8 hPa Calm   5.0 km/h 92 % 0.0 mm
06:25 17.2 °C 16.0 °C 1018.8 hPa Calm   5.0 km/h 92 % 0.0 mm
06:30 17.4 °C 16.0 °C 1018.8 hPa Calm   5.0 km/h 92 % 0.0 mm
06:31 17.4 °C 16.0 °C 1019.9 hPa Calm   5.5 km/h 92 % 0.0 mm
06:36 17.6 °C 16.0 °C 1019.9 hPa Calm   5.5 km/h 92 % 0.0 mm
06:42 17.9 °C 17.0 °C 1019.9 hPa Calm   4.7 km/h 92 % 0.0 mm
06:47 18.1 °C 17.0 °C 1018.8 hPa Calm   4.7 km/h 91 % 0.0 mm
06:52 18.4 °C 17.0 °C 1018.8 hPa Calm   1.4 km/h 91 % 0.0 mm
06:57 18.7 °C 17.0 °C 1018.8 hPa Calm   4.0 km/h 91 % 0.0 mm
07:02 19.0 °C 17.0 °C 1018.8 hPa Calm   4.0 km/h 90 % 0.0 mm
07:07 19.2 °C 18.0 °C 1018.8 hPa Calm   2.1 km/h 90 % 0.0 mm
07:12 19.5 °C 18.0 °C 1018.8 hPa Calm     89 % 0.0 mm
07:17 19.8 °C 18.0 °C 1018.8 hPa Calm     89 % 0.0 mm
07:22 20.2 °C 18.0 °C 1018.8 hPa Calm     88 % 0.0 mm
07:27 20.6 °C 19.0 °C 1018.8 hPa Calm     88 % 0.0 mm
07:32 20.9 °C 19.0 °C 1018.8 hPa Calm     87 % 0.0 mm
07:37 21.3 °C 19.0 °C 1018.8 hPa Calm     86 % 0.0 mm
07:42 21.7 °C 19.0 °C 1018.8 hPa Calm   1.4 km/h 85 % 0.0 mm
07:47 22.1 °C 19.0 °C 1018.8 hPa SE 1.4 km/h 4.7 km/h 83 % 0.0 mm
07:52 22.4 °C 19.0 °C 1018.8 hPa Calm   4.7 km/h 81 % 0.0 mm
07:54 22.5 °C 19.0 °C 1018.8 hPa Calm   4.7 km/h 81 % 0.0 mm
07:59 22.6 °C 19.0 °C 1018.8 hPa Calm   3.5 km/h 79 % 0.0 mm
08:04 22.9 °C 19.0 °C 1018.8 hPa Calm   3.5 km/h 78 % 0.0 mm
08:09 23.2 °C 19.0 °C 1018.8 hPa Calm     77 % 0.0 mm
08:14 23.5 °C 19.0 °C 1018.8 hPa Calm   3.2 km/h 76 % 0.0 mm
08:19 23.9 °C 20.0 °C 1018.8 hPa Calm   3.2 km/h 76 % 0.0 mm
08:24 24.3 °C 20.0 °C 1018.8 hPa Calm     74 % 0.0 mm
08:29 24.7 °C 20.0 °C 1018.8 hPa Calm     72 % 0.0 mm
08:34 24.9 °C 20.0 °C 1018.8 hPa Calm     72 % 0.0 mm
08:39 25.4 °C 20.0 °C 1018.8 hPa Calm     71 % 0.0 mm
08:44 25.9 °C 20.0 °C 1018.8 hPa Calm     70 % 0.0 mm
08:50 26.2 °C 20.0 °C 1018.8 hPa Calm     68 % 0.0 mm
08:55 26.3 °C 20.0 °C 1018.8 hPa Calm     66 % 0.0 mm
09:00 26.5 °C 20.0 °C 1018.8 hPa Calm     64 % 0.0 mm
09:05 26.7 °C 20.0 °C 1018.8 hPa Calm   4.0 km/h 64 % 0.0 mm
09:10 27.0 °C 19.0 °C 1018.8 hPa Calm   4.0 km/h 62 % 0.0 mm
09:15 27.2 °C 19.0 °C 1018.8 hPa Calm   2.1 km/h 59 % 0.0 mm
09:20 27.1 °C 18.0 °C 1018.8 hPa Calm   2.6 km/h 57 % 0.0 mm
09:25 27.2 °C 18.0 °C 1018.8 hPa Calm   2.6 km/h 57 % 0.0 mm
09:30 27.4 °C 18.0 °C 1018.8 hPa Calm   2.6 km/h 55 % 0.0 mm
09:35 27.5 °C 18.0 °C 1018.8 hPa Calm     56 % 0.0 mm
09:40 27.6 °C 18.0 °C 1018.8 hPa Calm     55 % 0.0 mm
09:45 28.0 °C 18.0 °C 1018.8 hPa Calm   5.5 km/h 54 % 0.0 mm
09:50 28.4 °C 18.0 °C 1018.8 hPa Calm   5.5 km/h 52 % 0.0 mm
09:55 28.8 °C 18.0 °C 1018.8 hPa Calm   3.2 km/h 52 % 0.0 mm
10:00 29.0 °C 18.0 °C 1018.8 hPa Calm   2.1 km/h 51 % 0.0 mm
10:05 29.3 °C 17.0 °C 1018.8 hPa Calm   2.1 km/h 48 % 0.0 mm
10:10 29.4 °C 17.0 °C 1018.8 hPa Calm   1.4 km/h 48 % 0.0 mm
10:15 29.4 °C 17.0 °C 1018.8 hPa East 1.4 km/h 4.3 km/h 46 % 0.0 mm
10:20 29.7 °C 17.0 °C 1018.8 hPa Calm   5.5 km/h 46 % 0.0 mm
10:25 30.0 °C 17.0 °C 1018.8 hPa Calm   5.5 km/h 46 % 0.0 mm
10:30 29.8 °C 16.0 °C 1018.8 hPa Calm   5.5 km/h 43 % 0.0 mm
10:35 30.1 °C 16.0 °C 1018.8 hPa Calm   7.2 km/h 43 % 0.0 mm
10:40 30.0 °C 15.0 °C 1018.8 hPa West 4.7 km/h 7.2 km/h 41 % 0.0 mm
10:45 30.1 °C 16.0 °C 1018.8 hPa Calm   7.2 km/h 43 % 0.0 mm
10:50 30.4 °C 16.0 °C 1018.8 hPa Calm   7.2 km/h 42 % 0.0 mm
10:56 30.8 °C 16.0 °C 1018.8 hPa Calm   4.7 km/h 42 % 0.0 mm
11:01 31.1 °C 16.0 °C 1018.8 hPa East 1.8 km/h 4.7 km/h 41 % 0.0 mm
11:06 31.0 °C 16.0 °C 1018.8 hPa Calm   6.4 km/h 40 % 0.0 mm
11:11 30.9 °C 16.0 °C 1018.8 hPa Calm   6.4 km/h 41 % 0.0 mm
11:16 31.0 °C 15.0 °C 1019.9 hPa ENE 4.3 km/h 6.9 km/h 38 % 0.0 mm
11:17 31.0 °C 15.0 °C 1019.9 hPa Calm   6.9 km/h 38 % 0.0 mm
11:22 31.1 °C 15.0 °C 1019.9 hPa Calm   6.9 km/h 38 % 0.0 mm
11:27 31.1 °C 15.0 °C 1019.9 hPa Calm   6.4 km/h 38 % 0.0 mm
11:32 31.5 °C 16.0 °C 1018.2 hPa Calm   6.4 km/h 38 % 0.0 mm
11:37 31.5 °C 16.0 °C 1018.2 hPa Calm   5.0 km/h 38 % 0.0 mm
11:42 31.6 °C 15.0 °C 1018.2 hPa Calm   5.0 km/h 37 % 0.0 mm
11:47 31.8 °C 16.0 °C 1018.8 hPa Calm   4.0 km/h 38 % 0.0 mm
11:52 31.8 °C 15.0 °C 1018.8 hPa ENE 4.7 km/h 10.1 km/h 37 % 0.0 mm
11:57 31.9 °C 15.0 °C 1018.8 hPa Calm   10.1 km/h 35 % 0.0 mm
12:02 31.5 °C 14.0 °C 1018.2 hPa Calm   10.5 km/h 34 % 0.0 mm
12:07 31.9 °C 15.0 °C 1018.2 hPa SE 2.6 km/h 10.5 km/h 36 % 0.0 mm
12:12 31.8 °C 14.0 °C 1018.2 hPa NNE 3.5 km/h 10.5 km/h 35 % 0.0 mm
12:17 31.7 °C 14.0 °C 1019.9 hPa North 6.9 km/h 13.7 km/h 35 % 0.0 mm
12:22 31.7 °C 15.0 °C 1019.9 hPa NNE 3.5 km/h 13.7 km/h 36 % 0.0 mm
12:27 32.2 °C 15.0 °C 1019.9 hPa Calm   10.5 km/h 35 % 0.0 mm
12:32 32.3 °C 15.0 °C 1018.8 hPa SE 2.6 km/h 10.8 km/h 35 % 0.0 mm
12:38 32.2 °C 15.0 °C 1018.8 hPa East 10.5 km/h 12.6 km/h 35 % 0.0 mm
12:48 32.9 °C 15.0 °C 1018.8 hPa NE 7.9 km/h 10.5 km/h 34 % 0.0 mm
12:53 32.7 °C 15.0 °C 1018.8 hPa Calm   10.1 km/h 33 % 0.0 mm
12:58 32.9 °C 15.0 °C 1018.8 hPa East 3.2 km/h 10.1 km/h 33 % 0.0 mm
13:03 32.5 °C 15.0 °C 1018.8 hPa ENE 6.4 km/h 11.9 km/h 33 % 0.0 mm
13:08 32.6 °C 15.0 °C 1018.8 hPa Calm   16.6 km/h 33 % 0.0 mm
13:13 32.5 °C 15.0 °C 1018.8 hPa NE 10.5 km/h 16.6 km/h 33 % 0.0 mm
13:18 32.5 °C 15.0 °C 1018.8 hPa NE 7.9 km/h 14.3 km/h 33 % 0.0 mm
13:23 32.6 °C 15.0 °C 1018.8 hPa ENE 7.9 km/h 11.9 km/h 33 % 0.0 mm
13:28 32.7 °C 15.0 °C 1018.8 hPa SE 13.7 km/h 17.2 km/h 33 % 0.0 mm
13:33 33.2 °C 15.0 °C 1018.8 hPa SE 12.6 km/h 17.2 km/h 33 % 0.0 mm
13:38 33.3 °C 14.0 °C 1018.8 hPa South 12.6 km/h 12.6 km/h 32 % 0.0 mm
13:43 33.5 °C 15.0 °C 1018.8 hPa ESE 5.0 km/h 12.6 km/h 32 % 0.0 mm
13:48 33.4 °C 14.0 °C 1018.2 hPa SE 4.3 km/h 13.0 km/h 31 % 0.0 mm
13:53 33.1 °C 13.0 °C 1018.2 hPa NNE 9.3 km/h 13.7 km/h 30 % 0.0 mm
13:58 33.1 °C 14.0 °C 1018.2 hPa East 10.1 km/h 13.7 km/h 32 % 0.0 mm
14:03 33.1 °C 14.0 °C 1018.8 hPa ENE 4.0 km/h 13.0 km/h 31 % 0.0 mm
14:08 33.0 °C 14.0 °C 1018.8 hPa NE 12.6 km/h 16.3 km/h 31 % 0.0 mm
14:13 33.2 °C 14.0 °C 1018.8 hPa Calm   16.3 km/h 31 % 0.0 mm
14:18 33.3 °C 13.0 °C 1018.8 hPa East 9.0 km/h 10.5 km/h 30 % 0.0 mm
14:23 33.5 °C 14.0 °C 1018.8 hPa NE 9.0 km/h 10.1 km/h 30 % 0.0 mm
14:28 33.4 °C 13.0 °C 1018.8 hPa Calm   12.2 km/h 29 % 0.0 mm
14:33 33.7 °C 13.0 °C 1018.2 hPa ESE 5.5 km/h 12.2 km/h 29 % 0.0 mm
14:38 34.0 °C 13.0 °C 1018.2 hPa NE 1.8 km/h 10.5 km/h 29 % 0.0 mm
14:43 34.0 °C 13.0 °C 1018.2 hPa SE 6.1 km/h 10.5 km/h 29 % 0.0 mm
14:48 34.2 °C 14.0 °C 1018.2 hPa SE 5.8 km/h 10.5 km/h 29 % 0.0 mm
14:54 34.4 °C 14.0 °C 1018.2 hPa South 6.1 km/h 7.9 km/h 29 % 0.0 mm
14:59 34.6 °C 14.0 °C 1018.2 hPa SSE 6.9 km/h 10.5 km/h 29 % 0.0 mm
15:04 34.4 °C 13.0 °C 1018.2 hPa SSE 6.1 km/h 10.5 km/h 28 % 0.0 mm
15:09 34.4 °C 14.0 °C 1018.2 hPa SE 9.7 km/h 10.1 km/h 29 % 0.0 mm
15:14 34.5 °C 14.0 °C 1018.2 hPa ESE 4.7 km/h 13.0 km/h 28 % 0.0 mm
15:19 34.5 °C 13.0 °C 1018.2 hPa Calm   15.1 km/h 27 % 0.0 mm
15:24 34.6 °C 14.0 °C 1018.2 hPa SE 1.8 km/h 15.1 km/h 28 % 0.0 mm
15:29 34.7 °C 13.0 °C 1018.2 hPa Calm   10.1 km/h 27 % 0.0 mm
15:34 34.9 °C 13.0 °C 1016.8 hPa Calm   9.0 km/h 27 % 0.0 mm
15:39 35.0 °C 13.0 °C 1016.8 hPa ENE 7.9 km/h 9.0 km/h 27 % 0.0 mm
15:44 35.0 °C 13.0 °C 1016.8 hPa East 5.0 km/h 7.9 km/h 27 % 0.0 mm
15:49 35.0 °C 13.0 °C 1016.8 hPa Calm   6.9 km/h 27 % 0.0 mm
15:52 34.8 °C 13.0 °C 1016.8 hPa East 4.3 km/h 11.9 km/h 27 % 0.0 mm
15:57 35.0 °C 13.0 °C 1016.8 hPa Calm   11.9 km/h 27 % 0.0 mm
16:02 35.4 °C 14.0 °C 1016.8 hPa Calm   6.4 km/h 28 % 0.0 mm
16:07 35.2 °C 14.0 °C 1016.8 hPa East 6.9 km/h 9.3 km/h 27 % 0.0 mm
16:12 35.2 °C 14.0 °C 1016.8 hPa North 5.8 km/h 9.3 km/h 27 % 0.0 mm
16:17 35.0 °C 13.0 °C 1016.8 hPa SE 2.6 km/h 9.7 km/h 27 % 0.0 mm
16:22 34.9 °C 13.0 °C 1016.8 hPa NE 8.7 km/h 12.6 km/h 27 % 0.0 mm
16:27 34.5 °C 13.0 °C 1016.8 hPa NE 4.3 km/h 13.0 km/h 27 % 0.0 mm
16:33 34.6 °C 13.0 °C 1016.8 hPa SE 1.8 km/h 11.6 km/h 27 % 0.0 mm
16:38 34.8 °C 14.0 °C 1016.8 hPa Calm   10.1 km/h 28 % 0.0 mm
16:43 34.9 °C 13.0 °C 1016.8 hPa NW 4.0 km/h 7.6 km/h 26 % 0.0 mm
16:48 34.8 °C 13.0 °C 1016.8 hPa East 7.9 km/h 9.7 km/h 27 % 0.0 mm
16:53 34.7 °C 13.0 °C 1016.8 hPa Calm   11.6 km/h 27 % 0.0 mm
16:58 34.7 °C 13.0 °C 1016.8 hPa Calm   11.6 km/h 27 % 0.0 mm
17:03 34.7 °C 13.0 °C 1016.8 hPa Calm   9.3 km/h 27 % 0.0 mm
17:08 34.6 °C 13.0 °C 1016.8 hPa Calm   9.3 km/h 27 % 0.0 mm
17:13 34.4 °C 12.0 °C 1016.8 hPa ENE 4.7 km/h 11.9 km/h 26 % 0.0 mm
17:18 34.4 °C 13.0 °C 1016.8 hPa Calm   11.9 km/h 27 % 0.0 mm
17:23 34.5 °C 13.0 °C 1016.8 hPa ENE 2.6 km/h 10.1 km/h 26 % 0.0 mm
17:28 34.8 °C 13.0 °C 1016.8 hPa Calm   9.0 km/h 27 % 0.0 mm
17:33 35.1 °C 13.0 °C 1016.1 hPa Calm   5.0 km/h 26 % 0.0 mm
17:38 35.2 °C 13.0 °C 1016.1 hPa Calm   5.8 km/h 26 % 0.0 mm
17:43 35.0 °C 13.0 °C 1016.1 hPa SSE 2.1 km/h 9.0 km/h 26 % 0.0 mm
17:48 35.0 °C 13.0 °C 1016.8 hPa NE 7.9 km/h 9.7 km/h 26 % 0.0 mm
17:53 34.3 °C 12.0 °C 1016.8 hPa Calm   10.5 km/h 26 % 0.0 mm
17:58 34.2 °C 12.0 °C 1016.8 hPa Calm   10.5 km/h 25 % 0.0 mm
18:04 34.2 °C 13.0 °C 1016.8 hPa Calm   7.2 km/h 27 % 0.0 mm
18:09 34.1 °C 12.0 °C 1016.8 hPa SSE 9.7 km/h 9.7 km/h 26 % 0.0 mm
18:14 34.2 °C 12.0 °C 1016.8 hPa Calm   10.1 km/h 26 % 0.0 mm
18:16 34.3 °C 13.0 °C 1016.8 hPa South 9.0 km/h 10.1 km/h 27 % 0.0 mm
18:21 34.3 °C 12.0 °C 1016.8 hPa ESE 5.5 km/h 9.0 km/h 26 % 0.0 mm
18:26 34.3 °C 12.0 °C 1016.8 hPa Calm   8.7 km/h 26 % 0.0 mm
18:31 34.3 °C 12.0 °C 1016.8 hPa ESE 8.7 km/h 8.7 km/h 26 % 0.0 mm
18:36 34.3 °C 12.0 °C 1016.8 hPa Calm   8.7 km/h 25 % 0.0 mm
18:41 34.3 °C 13.0 °C 1016.8 hPa Calm   5.5 km/h 27 % 0.0 mm
18:46 34.3 °C 12.0 °C 1016.8 hPa Calm   6.1 km/h 26 % 0.0 mm
18:51 34.3 °C 12.0 °C 1016.8 hPa Calm   6.1 km/h 26 % 0.0 mm
18:56 34.3 °C 12.0 °C 1016.8 hPa Calm   6.1 km/h 26 % 0.0 mm
19:01 34.4 °C 12.0 °C 1016.8 hPa Calm   3.5 km/h 25 % 0.0 mm
19:06 34.4 °C 12.0 °C 1016.8 hPa Calm     25 % 0.0 mm
19:11 34.3 °C 12.0 °C 1016.8 hPa WNW 4.3 km/h 6.9 km/h 25 % 0.0 mm
19:16 34.3 °C 12.0 °C 1016.8 hPa NNW 3.2 km/h 6.9 km/h 25 % 0.0 mm
19:21 34.3 °C 12.0 °C 1016.8 hPa West 9.0 km/h 10.1 km/h 25 % 0.0 mm
19:27 34.3 °C 12.0 °C 1016.8 hPa NNW 9.3 km/h 12.6 km/h 25 % 0.0 mm
19:32 34.3 °C 12.0 °C 1016.8 hPa NNW 5.8 km/h 14.3 km/h 25 % 0.0 mm
19:37 31.8 °C 14.0 °C 1016.8 hPa North 14.0 km/h 14.8 km/h 35 % 0.0 mm
19:42 31.4 °C 15.0 °C 1016.8 hPa ENE 11.9 km/h 14.8 km/h 37 % 0.0 mm
19:47 31.2 °C 15.0 °C 1016.8 hPa North 12.6 km/h 14.3 km/h 38 % 0.0 mm
19:52 30.9 °C 16.0 °C 1016.8 hPa NNE 9.7 km/h 15.8 km/h 39 % 0.0 mm
19:57 30.7 °C 15.0 °C 1016.8 hPa North 8.7 km/h 15.8 km/h 39 % 0.0 mm
20:02 30.5 °C 16.0 °C 1016.8 hPa North 9.3 km/h 15.8 km/h 40 % 0.0 mm
20:07 30.4 °C 16.0 °C 1016.8 hPa NW 9.3 km/h 15.4 km/h 41 % 0.0 mm
20:10 30.3 °C 16.0 °C 1016.8 hPa North 6.1 km/h 14.0 km/h 41 % 0.0 mm
20:13 30.1 °C 16.0 °C 1016.8 hPa North 4.7 km/h 14.0 km/h 42 % 0.0 mm
20:18 29.8 °C 16.0 °C 1016.8 hPa NW 10.1 km/h 13.7 km/h 43 % 0.0 mm
20:23 29.6 °C 16.0 °C 1016.8 hPa NNW 6.1 km/h 13.7 km/h 43 % 0.0 mm
20:28 29.3 °C 16.0 °C 1016.8 hPa NNE 9.7 km/h 13.7 km/h 44 % 0.0 mm
20:33 29.0 °C 16.0 °C 1016.8 hPa North 9.3 km/h 13.7 km/h 44 % 0.0 mm
20:39 28.7 °C 16.0 °C 1016.8 hPa NNE 10.1 km/h 13.7 km/h 45 % 0.0 mm
20:44 28.5 °C 16.0 °C 1016.8 hPa North 7.9 km/h 13.0 km/h 46 % 0.0 mm
20:49 28.0 °C 16.0 °C 1016.8 hPa NNW 13.0 km/h 14.0 km/h 46 % 0.0 mm
20:54 27.7 °C 16.0 °C 1016.8 hPa NNW 9.3 km/h 14.0 km/h 48 % 0.0 mm
20:59 27.3 °C 16.0 °C 1016.8 hPa North 8.7 km/h 13.0 km/h 49 % 0.0 mm
21:04 27.1 °C 16.0 °C 1016.8 hPa NNE 4.3 km/h 13.0 km/h 50 % 0.0 mm
21:09 26.8 °C 16.0 °C 1016.8 hPa North 11.9 km/h 12.2 km/h 51 % 0.0 mm
21:14 26.6 °C 16.0 °C 1016.8 hPa NW 12.6 km/h 12.6 km/h 51 % 0.0 mm
21:19 26.3 °C 16.0 °C 1016.8 hPa NE 6.4 km/h 12.6 km/h 52 % 0.0 mm
21:24 26.0 °C 16.0 °C 1016.8 hPa NNE 7.6 km/h 11.9 km/h 52 % 0.0 mm
21:29 25.8 °C 16.0 °C 1016.8 hPa NNW 9.0 km/h 12.6 km/h 54 % 0.0 mm
21:34 25.5 °C 16.0 °C 1016.8 hPa North 6.4 km/h 12.6 km/h 55 % 0.0 mm
21:39 25.3 °C 16.0 °C 1016.8 hPa North 10.5 km/h 10.5 km/h 56 % 0.0 mm
21:44 25.1 °C 16.0 °C 1016.8 hPa NE 4.3 km/h 10.5 km/h 56 % 0.0 mm
21:49 24.8 °C 15.0 °C 1018.2 hPa North 7.2 km/h 10.1 km/h 56 % 0.0 mm
21:54 24.6 °C 16.0 °C 1018.2 hPa North 8.7 km/h 10.1 km/h 58 % 0.0 mm
21:59 24.4 °C 16.0 °C 1018.2 hPa North 8.7 km/h 10.1 km/h 58 % 0.0 mm
22:04 24.2 °C 16.0 °C 1016.1 hPa North 6.9 km/h 9.3 km/h 59 % 0.0 mm
22:09 24.0 °C 16.0 °C 1016.1 hPa NW 4.7 km/h 9.3 km/h 59 % 0.0 mm
22:10 24.0 °C 16.0 °C 1016.1 hPa NNE 4.7 km/h 9.3 km/h 60 % 0.0 mm
22:15 23.8 °C 16.0 °C 1016.1 hPa North 5.5 km/h 9.3 km/h 60 % 0.0 mm
22:20 23.7 °C 16.0 °C 1016.8 hPa North 7.9 km/h 7.9 km/h 61 % 0.0 mm
22:25 23.5 °C 16.0 °C 1016.8 hPa North 7.9 km/h 9.0 km/h 61 % 0.0 mm
22:30 23.3 °C 16.0 °C 1016.8 hPa North 10.5 km/h 10.5 km/h 62 % 0.0 mm
22:35 23.2 °C 16.0 °C 1016.8 hPa North 6.9 km/h 10.5 km/h 62 % 0.0 mm
22:40 23.0 °C 16.0 °C 1016.8 hPa Calm   9.7 km/h 63 % 0.0 mm
22:45 22.9 °C 16.0 °C 1016.8 hPa NNE 6.4 km/h 11.6 km/h 64 % 0.0 mm
22:51 22.8 °C 16.0 °C 1016.8 hPa North 5.8 km/h 11.6 km/h 65 % 0.0 mm
22:56 22.7 °C 16.0 °C 1016.8 hPa NNE 7.9 km/h 10.5 km/h 64 % 0.0 mm
23:01 22.5 °C 16.0 °C 1016.8 hPa North 4.7 km/h 9.7 km/h 66 % 0.0 mm
23:06 22.4 °C 16.0 °C 1016.8 hPa NNW 6.9 km/h 10.1 km/h 66 % 0.0 mm
23:11 22.3 °C 16.0 °C 1016.8 hPa NNE 6.1 km/h 10.5 km/h 66 % 0.0 mm
23:16 22.2 °C 16.0 °C 1016.8 hPa NNE 4.3 km/h 10.5 km/h 67 % 0.0 mm
23:21 22.1 °C 15.0 °C 1016.8 hPa North 6.1 km/h 10.5 km/h 66 % 0.0 mm
23:26 21.9 °C 16.0 °C 1016.8 hPa NE 6.9 km/h 9.7 km/h 68 % 0.0 mm
23:31 21.8 °C 16.0 °C 1016.1 hPa NNW 6.1 km/h 9.0 km/h 68 % 0.0 mm
23:36 21.7 °C 16.0 °C 1016.1 hPa NE 6.9 km/h 9.0 km/h 68 % 0.0 mm
23:41 21.4 °C 15.0 °C 1016.1 hPa NNE 4.3 km/h 9.0 km/h 68 % 0.0 mm
23:46 21.2 °C 15.0 °C 1016.8 hPa NE 4.3 km/h 6.9 km/h 68 % 0.0 mm
23:51 20.9 °C 15.0 °C 1016.8 hPa Calm   6.9 km/h 69 % 0.0 mm
23:56 20.7 °C 15.0 °C 1016.8 hPa Calm   5.8 km/h 71 % 0.0 mm
Le Gheer Warneton
Courtoisie de Weather Underground - 2.25 mb

Mise a jour : 17-12-17 07:14:12
Généré par Cumulus 1.9.4 (1099)